Location: North Smoke Tower Site
(30.5430°N, 82.3390°W)
Time: 03:41:18
(UTC-04:00)

Cosmos 1980 Rocket - Visible Passes

Search period start: 23 April 2014 00:00
Search period end: 03 May 2014 00:00
Orbit: 831 x 849 km, 71.0° (Epoch: 22 April)

Date Brightness Start Highest point End Pass type
(mag) Time Alt. Az. Time Alt. Az. Time Alt. Az.
23 Apr 5.0 04:56:59 10° ESE 04:58:33 11° E 05:00:06 10° E visible
24 Apr 5.1 04:42:38 10° E 04:43:01 10° E 04:43:23 10° E visible
24 Apr 2.2 06:20:38 10° SSW 06:26:16 74° WNW 06:31:54 10° NNE visible
25 Apr 2.2 06:05:03 10° SSW 06:10:42 79° WNW 06:16:21 10° NNE visible
26 Apr 2.2 05:49:29 10° SSW 05:55:08 85° WNW 06:00:47 10° NNE visible
27 Apr 2.2 05:34:25 13° SSW 05:39:33 89° ESE 05:45:12 10° NNE visible
28 Apr 2.2 05:19:55 20° SSW 05:24:00 84° ESE 05:29:38 10° NNE visible
29 Apr 2.2 05:05:20 28° S 05:08:26 78° ESE 05:14:03 10° NNE visible
30 Apr 2.3 04:50:39 38° S 04:52:52 72° ESE 04:58:28 10° NNE visible
01 May 2.4 04:35:53 49° SSE 04:37:18 67° ESE 04:42:53 10° NNE visible
01 May 4.1 06:19:03 10° W 06:21:45 14° WNW 06:24:26 10° NNW visible
02 May 2.4 04:21:04 57° SE 04:21:44 62° ESE 04:27:17 10° NNE visible
02 May 4.0 06:03:08 10° W 06:06:08 15° WNW 06:09:08 10° NNW visible
